Regional Weather Roundup
Issued by NWS

Home | Current Version | Previous Version | Graphics & Text | Print | Product List | Glossary On
Versions: 1 2 3 4 5 6 7 8 9 10 11 12 13 14 15 16 17 18 19 20 21 22 23 24 25 26 27 28 29 30 31 32 33 34 35 36 37 38 39 40 41 42 43 44 45 46 47 48 49 50
000
ASUS43 KBIS 210410
RWRND

NORTH DAKOTA REGIONAL WEATHER ROUNDUP
NATIONAL WEATHER SERVICE BISMARCK ND
1100 PM CDT SUN APR 20 2014

NOTE: "FAIR" INDICATES FEW OR NO CLOUDS BELOW 12,000 FEET WITH NO
SIGNIFICANT WEATHER AND/OR OBSTRUCTIONS TO VISIBILITY.


NDZ001>003-009>011-017-210500-
NORTHWEST NORTH DAKOTA

CITY           SKY/WX    TMP DP  RH WIND       PRES   REMARKS
WILLISTON      CLEAR     46  28  49 W10       30.02R
MINOT          CLEAR     50  30  46 W12       29.95R
MINOT AFB      CLEAR     45  34  64 W12       29.94S
$$

NDZ018>021-031>035-040>046-210500-
SOUTHWEST NORTH DAKOTA

CITY           SKY/WX    TMP DP  RH WIND       PRES   REMARKS
BISMARCK       CLEAR     52  26  36 W5        30.01R
DICKINSON      CLEAR     41  23  48 NW6       30.04R
GARRISON         N/A     52  30  43 NW13      29.99R
HETTINGER ARPT CLEAR     38  24  57 NW3       30.09R
$$

NDZ004>008-012>016-024-026-027-054-210500-
NORTHEAST NORTH DAKOTA

CITY           SKY/WX    TMP DP  RH WIND       PRES   REMARKS
GRAND FORKS    CLOUDY    55  38  52 W8        29.88R
GRND FRKS AFB  MOCLDY    58  35  41 NW8       29.89R
DEVILS LAKE    MOCLDY    52  34  50 W10       29.91S
$$

NDZ022-023-025-028>030-036>039-047>053-210500-
SOUTHEAST NORTH DAKOTA

CITY           SKY/WX    TMP DP  RH WIND       PRES   REMARKS
FARGO          PTCLDY    62  37  39 S13       29.85F
JAMESTOWN      CLOUDY    58  33  39 NW13      29.94R
$$




USA.gov is the U.S. government's official web portal to all federal, state and local government web resources and services.